Greenville, ME

3:05 AM EDT on October 22, 2017 (GMT -0400)
Greenville

Weather History for KGNR - March, 2014

Change the Weather History Date:

Saturday, March 22, 2014

  Actual Average (KMLT) Record (KMLT)
Temperature  
Mean Temperature 19 °F -  
Max Temperature 28 °F 38 °F 80 °F (2012)
Min Temperature 10 °F 19 °F -17 °F (1916)
Degree Days  
Heating Degree Days 46    
Moisture  
Dew Point 17 °F    
Average Humidity 81    
Maximum Humidity 92    
Minimum Humidity 65    
Precipitation  
Precipitation 0.22 in - - ()
Sea Level Pressure  
Sea Level Pressure 29.79 in    
Wind  
Wind Speed 6 mph (West)    
Max Wind Speed 13 mph    
Max Gust Speed 25 mph    
Averages and records for this station are not official NWS values.
T = Trace of Precipitation, MM = Missing Value Source: NWS Daily Summary

Daily Weather History Graph

Daily Weather History Graph

Search for Another Location

Airport or City:

Trip Planner

Search our weather history database for the weather conditions in past years. The results will help you decide how hot, cold, wet, or windy it might be!

Date:

Astronomy

Mar. 22, 2014 Rise Set
Actual Time 6:37 AM EDT 6:53 PM EDT
Civil Twilight 6:08 AM EDT 7:23 PM EDT
Nautical Twilight 5:33 AM EDT 7:57 PM EDT
Astronomical Twilight 4:57 AM EDT 8:33 PM EDT
Moon 12:22 AM EDT 10:03 AM EDT
Length of Visible Light 13h 14m
Length of Day
12h 15m
Waning Gibbous, 65% of the Moon is Illuminated
Mar 22
Waning Gibbous
Mar 23
Last Quarter
Mar 30
New
Apr 7
First Quarter
Apr 15
Full

Hourly Weather History & Observations

Time (EDT) Temp. Windchill Dew Point Humidity Pressure Visibility Wind Dir Wind Speed Gust Speed Precip Events Conditions
12:56 AM 21.0 °F 11.4 °F 15.1 °F 78% 29.88 in - NW 8.1 mph - N/A   Unknown
1:56 AM 19.0 °F 10.0 °F 14.0 °F 81% 29.89 in - Variable 6.9 mph - N/A   Unknown
2:56 AM 19.0 °F 6.8 °F 12.0 °F 74% 29.89 in - NW 11.5 mph - N/A   Unknown
3:56 AM 18.0 °F - 12.0 °F 78% 29.91 in - Calm Calm - N/A   Unknown
4:56 AM 14.0 °F - 9.0 °F 80% 29.95 in - Calm Calm - N/A   Unknown
5:56 AM 10.0 °F - 6.1 °F 84% 29.92 in - Calm Calm - N/A   Unknown
6:56 AM 12.9 °F - 9.0 °F 84% 29.92 in - Calm Calm - N/A   Unknown
7:56 AM 17.1 °F - 12.0 °F 81% 29.90 in - Calm Calm - N/A   Unknown
8:56 AM 19.0 °F - 12.9 °F 77% 29.88 in - Calm Calm - N/A   Unknown
9:56 AM 24.1 °F 16.0 °F 14.0 °F 65% 29.85 in - ESE 6.9 mph - N/A   Unknown
10:56 AM 24.1 °F 16.0 °F 14.0 °F 65% 29.81 in - SE 6.9 mph - N/A   Unknown
11:56 AM 25.0 °F 15.5 °F 16.0 °F 69% 29.76 in - SSE 9.2 mph - N/A   Unknown
12:56 PM 24.1 °F 17.0 °F 21.0 °F 88% 29.73 in - Variable 5.8 mph - 0.03 in   Unknown
1:56 PM 25.0 °F 17.1 °F 23.0 °F 92% 29.66 in - Variable 6.9 mph - 0.05 in   Unknown
2:56 PM 26.1 °F 17.6 °F 24.1 °F 92% 29.64 in - SSE 8.1 mph - 0.07 in   Unknown
3:56 PM 28.0 °F 19.3 °F 25.0 °F 88% 29.60 in - South 9.2 mph - 0.03 in   Unknown
4:56 PM 28.0 °F 19.3 °F 25.0 °F 88% 29.60 in - South 9.2 mph - 0.02 in   Unknown
5:56 PM 28.9 °F 23.9 °F 26.1 °F 89% 29.61 in - Variable 4.6 mph - 0.02 in   Unknown
6:56 PM 28.0 °F - 26.1 °F 92% 29.64 in - Calm Calm - N/A   Unknown
7:56 PM 27.0 °F 18.7 °F 21.9 °F 81% 29.71 in - WNW 8.1 mph 25.3 mph N/A   Unknown
8:56 PM 25.0 °F 14.2 °F 19.0 °F 78% 29.77 in - NW 11.5 mph 24.2 mph N/A   Unknown
9:56 PM 23.0 °F 11.1 °F 17.1 °F 78% 29.78 in - NW 12.7 mph 21.9 mph N/A   Unknown
10:56 PM 23.0 °F 11.7 °F 18.0 °F 81% 29.78 in - NNW 11.5 mph 21.9 mph N/A   Unknown
11:56 PM 23.0 °F 14.7 °F 19.0 °F 85% 29.80 in - NW 6.9 mph - N/A   Unknown